EVENES_(CIV/MIL) current weather conditions

sailwx.info

Last reported at 2019-Dec-05 13:30 UTC.
Time now 2019-Dec-05 14:42 UTC

Location: N 68°31' E 016°41'.
View on Google Maps.

See reports from other nearby stations

  
Tides and Currents Weather Stations Pressure Air Temp Water Temp Dewpoint Dewpoint Depression Visibility Wind Speed Wind Dir Waves Ship Positions
date/time (UTC)wind fromknots sea level pressurealtimeterstation pressurevisibilityair tempwater tempwave heightnotes
2019-Dec-05 13:50 5.4 3.0
2019-Dec-05 12:50 170 13 5.4 3.0 Light rain showers.
2019-Dec-05 12:20 160 9 5.4 3.0
2019-Dec-05 11:50 160 11 5.4 3.0
2019-Dec-05 11:20 5.4 3.0
2019-Dec-05 10:50 200 6 5.4 2.0
2019-Dec-05 09:50 160 13 5.4 3.0 Light drizzle.
2019-Dec-05 08:50 140 5 5.4 3.0
2019-Dec-05 08:20 170 6 gusting 17 5.4 4.0
2019-Dec-05 07:50 150 8 5.4 3.0
2019-Dec-05 07:20 150 8 5.4 2.0
2019-Dec-05 06:50 200 7 5.4 2.0 Light drizzle snow.
2019-Dec-05 05:50 240 17 gusting 29 3.2 2.0 Light drizzle snow.
2019-Dec-05 05:20 180 8 5.4 3.0 Light rain.
2019-Dec-05 04:50 210 9 5.4 3.0 Light rain.
2019-Dec-05 04:20 220 12 5.4 4.0 Light rain.
2019-Dec-05 03:50 220 13 gusting 27 5.4 5.0
2019-Dec-05 03:20 230 14 gusting 26 5.4 4.0
2019-Dec-05 02:50 210 12 5.4 5.0
2019-Dec-05 02:20 230 21 gusting 39 5.4 6.0 Light drizzle.
2019-Dec-05 01:50 200 17 gusting 27 5.4 5.0 Drizzle.
2019-Dec-05 01:20 200 15 5.4 5.0
2019-Dec-05 00:50 210 19 gusting 31 5.4 5.0 Light rain.
2019-Dec-05 00:20 190 6 5.4 4.0 Light rain.
2019-Dec-04 23:50 170 7 5.4 4.0 Light rain.
2019-Dec-04 23:20 180 7 5.4 4.0 Light rain.
2019-Dec-04 22:50 190 8 5.4 5.0 Light rain.
2019-Dec-04 22:20 200 8 5.4 6.0 Drizzle.
2019-Dec-04 21:50 190 6 5.4 5.0 Light drizzle.
2019-Dec-04 21:20 160 6 5.4 6.0 Light drizzle.
2019-Dec-04 20:50 190 6 5.4 6.0
2019-Dec-04 19:50 200 8 5.4 7.0
2019-Dec-04 18:50 230 14 gusting 29 5.4 7.0
2019-Dec-04 17:50 240 14 gusting 27 5.4 7.0
2019-Dec-04 17:20 230 24 gusting 41 5.4 8.0
2019-Dec-04 16:50 220 20 gusting 35 5.4 8.0 Light drizzle.
2019-Dec-04 16:20 220 17 gusting 34 5.4 8.0
2019-Dec-04 15:50 230 20 gusting 36 5.4 8.0
2019-Dec-04 14:50 230 20 gusting 34 2.7 7.0 Light rain showers.
2019-Dec-04 13:50 230 20 gusting 41 2.2 7.0 Light rain showers.
2019-Dec-04 13:20 220 22 gusting 40 1.9 7.0 Drizzle.
2019-Dec-04 12:50 230 21 gusting 35 2.7 7.0 Light rain drizzle.
2019-Dec-04 11:50 220 13 gusting 28 4.3 7.0 Light rain drizzle.
2019-Dec-04 10:50 220 14 gusting 27 5.4 7.0 Light rain showers.
2019-Dec-04 09:50 230 18 gusting 34 4.9 7.0 Light rain drizzle.
2019-Dec-04 08:50 220 13 gusting 25 2.7 7.0 Light rain drizzle. Mist.
2019-Dec-04 08:20 230 13 gusting 24 3.2 7.0 Light rain drizzle. Mist.
2019-Dec-04 07:50 220 14 gusting 27 3.2 7.0 Light rain drizzle.
2019-Dec-04 06:50 230 12 gusting 24 1.9 7.0 Light rain.
2019-Dec-04 05:50 220 12 3.8 7.0 Light rain.
2019-Dec-04 05:20 230 12 4.3 7.0 Light rain.
2019-Dec-04 04:50 230 12 gusting 21 2.7 6.0 Rain showers.
2019-Dec-04 04:20 220 9 4.3 7.0 Light rain.
2019-Dec-04 03:50 230 13 5.4 6.0 Light rain.
2019-Dec-04 03:20 240 13 gusting 25 2.3 6.0 Light rain.
2019-Dec-04 02:50 230 12 2.3 6.0 Drizzle.
2019-Dec-04 02:20 230 13 3.2 6.0 Light rain.
2019-Dec-04 01:50 220 8 2.3 6.0 Light rain.
2019-Dec-04 01:20 210 7 1.4 5.0 Heavy drizzle.
2019-Dec-04 00:50 200 8 2.7 5.0 Light rain.
2019-Dec-04 00:20 210 7 5.4 6.0 Light rain.
2019-Dec-03 23:50 190 9 5.4 5.0 Light rain.
2019-Dec-03 23:20 180 6 5.4 4.0 Light rain.
2019-Dec-03 22:50 170 5 4.9 4.0 Light rain.
2019-Dec-03 22:20 100 5 2.1 3.0 Light rain.
2019-Dec-03 21:50 140 5 1.5 1.0 Light rain drizzle.
2019-Dec-03 21:20 2.3 1.0 Light rain drizzle.
2019-Dec-03 20:50 240 2 2.2 1.0 Drizzle rain.
2019-Dec-03 19:50 2.2 1.0 Drizzle rain.
2019-Dec-03 18:50 190 5 3.2 1.0 Light rain.
2019-Dec-03 17:50 190 4 2.7 1.0 Light rain.
2019-Dec-03 16:50 190 6 3.2-0.0 Light rain.
2019-Dec-03 15:50 190 6 3.2-0.0 Light drizzle snow.
2019-Dec-03 14:50 150 9 gusting 20 3.2-0.0 Light drizzle snow.
2019-Dec-03 14:20 170 8 2.7-0.0 Light snow.